JYH6704 ZSPD-ZBTJ

Flight info

Callsign JYH6704
Flight time 0h 32m
Altitude 30100
Route ZSPD SID ODULO B221 XDX W174 TAO W103 JDW V89 DOVIV W55 DUMAP STAR ZBTJ
Aircraft B738/M-SDE2E3FGHIRWXY/LB1

Departure

Time 2026-05-05 06:39
Airport Shanghai Pudong International Airport (ZSPD)

Arrival

Time 2026-05-05 07:11
Airport Tianjin Binhai International Airport (ZBTJ)
Time Latitude Longitude Altitude Speed Heading
2026-05-05 06:25 31.14001 121.80273 22 ft 0 kts 251°
2026-05-05 06:30 31.14006 121.80291 22 ft 3 kts 252°
2026-05-05 06:31 31.14016 121.80333 26 ft 3 kts 275°
2026-05-05 06:31 31.13995 121.80366 24 ft 3 kts 339°
2026-05-05 06:31 31.13971 121.80375 26 ft 0 kts 342°
2026-05-05 06:32 31.13996 121.80364 26 ft 8 kts 341°
2026-05-05 06:33 31.14184 121.80280 22 ft 15 kts 302°
2026-05-05 06:33 31.14129 121.80029 22 ft 17 kts 252°
2026-05-05 06:33 31.14227 121.79871 22 ft 18 kts 342°
2026-05-05 06:33 31.14423 121.79728 22 ft 13 kts 248°
2026-05-05 06:34 31.14438 121.79564 23 ft 12 kts 341°
2026-05-05 06:34 31.14643 121.79487 23 ft 22 kts 342°
2026-05-05 06:34 31.14988 121.79357 22 ft 26 kts 342°
2026-05-05 06:34 31.15313 121.79234 24 ft 23 kts 342°
2026-05-05 06:35 31.15607 121.79123 22 ft 22 kts 342°
2026-05-05 06:35 31.15886 121.79019 22 ft 20 kts 342°
2026-05-05 06:35 31.16030 121.78963 22 ft 20 kts 341°
2026-05-05 06:35 31.16148 121.78917 22 ft 14 kts 339°
2026-05-05 06:36 31.16169 121.78826 23 ft 13 kts 251°
2026-05-05 06:36 31.16142 121.78727 22 ft 13 kts 252°
2026-05-05 06:36 31.16123 121.78657 24 ft 9 kts 252°
2026-05-05 06:36 31.16080 121.78613 21 ft 9 kts 179°
2026-05-05 06:37 31.16025 121.78637 22 ft 8 kts 162°
2026-05-05 06:37 31.16024 121.78637 21 ft 0 kts 162°
2026-05-05 06:38 31.16017 121.78640 22 ft 5 kts 162°
2026-05-05 06:38 31.15855 121.78700 22 ft 62 kts 162°
2026-05-05 06:39 31.15170 121.78958 25 ft 141 kts 162°
2026-05-05 06:39 31.14086 121.79368 404 ft 180 kts 161°
2026-05-05 06:39 31.12920 121.79816 1623 ft 169 kts 165°
2026-05-05 06:39 31.11807 121.80228 2691 ft 173 kts 164°
2026-05-05 06:40 31.10557 121.80702 3099 ft 204 kts 164°
2026-05-05 06:40 31.09121 121.81246 3450 ft 228 kts 164°
2026-05-05 06:40 31.06950 121.82069 4021 ft 258 kts 163°
2026-05-05 06:40 31.03454 121.83402 5888 ft 268 kts 162°
2026-05-05 06:41 30.99823 121.84799 7593 ft 279 kts 162°
2026-05-05 06:41 30.96080 121.86255 9352 ft 289 kts 159°
2026-05-05 06:41 30.93395 121.89648 10873 ft 306 kts 101°
2026-05-05 06:41 30.94448 121.94357 12529 ft 311 kts 59°
2026-05-05 06:42 30.95755 121.99227 14122 ft 325 kts 84°
2026-05-05 06:42 30.96321 122.04684 15012 ft 361 kts 78°
2026-05-05 06:42 30.97843 122.10563 15778 ft 392 kts 58°
2026-05-05 06:42 31.02169 122.14120 17139 ft 391 kts
2026-05-05 06:43 31.07199 122.12698 18486 ft 385 kts 318°
2026-05-05 06:43 31.10003 122.07506 19813 ft 383 kts 290°
2026-05-05 06:43 31.12866 122.02210 21013 ft 398 kts 313°
2026-05-05 06:43 31.17413 121.98396 22266 ft 408 kts 326°
2026-05-05 06:44 31.22412 121.95067 23413 ft 416 kts 327°
2026-05-05 06:44 31.27410 121.91558 24391 ft 422 kts 324°
2026-05-05 06:44 31.32742 121.88578 25306 ft 440 kts 346°
2026-05-05 06:44 31.38801 121.90048 26161 ft 469 kts 30°
2026-05-05 06:45 31.42808 121.96106 26901 ft 486 kts 70°
2026-05-05 06:45 31.45165 122.03587 27549 ft 495 kts 60°
2026-05-05 06:45 31.48985 122.10353 28252 ft 501 kts 53°
2026-05-05 06:45 31.52843 122.17099 28935 ft 508 kts 58°
2026-05-05 06:46 31.56368 122.24320 29851 ft 510 kts 60°
2026-05-05 06:46 31.60534 122.31011 30145 ft 512 kts 35°
2026-05-05 06:46 31.66948 122.33754 30163 ft 485 kts 354°
2026-05-05 06:46 31.73325 122.32224 30151 ft 456 kts 330°
2026-05-05 06:47 31.78945 122.29055 30130 ft 447 kts 330°
2026-05-05 06:47 31.90559 122.23813 30145 ft 449 kts 334°
2026-05-05 06:48 32.02361 122.18547 30138 ft 457 kts 334°
2026-05-05 06:48 32.40475 122.01111 30078 ft 456 kts 335°
2026-05-05 06:48 32.63891 121.90447 30048 ft 444 kts 336°
2026-05-05 06:49 32.86670 121.80017 30103 ft 437 kts 336°
2026-05-05 06:49 33.32389 121.58703 30163 ft 447 kts 335°
2026-05-05 06:50 33.77943 121.34680 30051 ft 445 kts 334°
2026-05-05 06:50 34.23288 121.14074 30075 ft 432 kts 336°
2026-05-05 06:51 34.68370 120.91905 30107 ft 445 kts 336°
2026-05-05 06:51 35.14290 120.69758 29999 ft 439 kts 337°
2026-05-05 06:51 35.36597 120.58880 29961 ft 426 kts 338°
2026-05-05 06:52 35.58675 120.48196 30066 ft 427 kts 338°
2026-05-05 06:52 35.90140 120.32780 30046 ft 436 kts 339°
2026-05-05 06:53 36.01757 120.29809 30010 ft 427 kts
2026-05-05 06:53 36.13319 120.33058 30023 ft 427 kts
2026-05-05 06:54 36.24994 120.35822 30013 ft 428 kts 11°
2026-05-05 06:54 36.30898 120.36089 29998 ft 427 kts 349°
2026-05-05 06:54 36.36469 120.33522 30026 ft 428 kts 336°
2026-05-05 06:55 36.47640 120.28375 30006 ft 429 kts 342°
2026-05-05 06:55 36.61636 120.22268 29996 ft 429 kts 341°
2026-05-05 06:56 36.84115 120.12057 29980 ft 430 kts 340°
2026-05-05 06:56 37.06617 120.01796 29970 ft 431 kts 340°
2026-05-05 06:57 37.29136 119.91455 29932 ft 431 kts 340°
2026-05-05 06:57 37.51621 119.81067 29914 ft 430 kts 339°
2026-05-05 06:58 37.74070 119.70628 29906 ft 429 kts 339°
2026-05-05 06:58 37.92678 119.61923 29898 ft 428 kts 338°
2026-05-05 06:59 38.14074 119.49488 29810 ft 427 kts 305°
2026-05-05 06:59 38.15497 119.39687 29892 ft 431 kts 272°
2026-05-05 06:59 38.16941 119.32462 29878 ft 423 kts 301°
2026-05-05 07:00 38.22408 119.19235 29867 ft 425 kts 293°
2026-05-05 07:00 38.26701 119.05236 29859 ft 424 kts 293°
2026-05-05 07:01 38.32379 118.87495 29855 ft 424 kts 293°
2026-05-05 07:01 38.41249 118.59701 29845 ft 423 kts 293°
2026-05-05 07:02 38.50033 118.31983 26925 ft 414 kts 292°
2026-05-05 07:02 38.54214 118.18677 24519 ft 395 kts 292°
2026-05-05 07:02 38.58229 118.05849 22024 ft 383 kts 292°
2026-05-05 07:02 38.62393 117.93452 19353 ft 377 kts 295°
2026-05-05 07:03 38.66788 117.81473 16888 ft 368 kts 293°
2026-05-05 07:03 38.70891 117.69658 14477 ft 358 kts 292°
2026-05-05 07:03 38.74917 117.58203 12118 ft 348 kts 292°
2026-05-05 07:03 38.78805 117.47091 10177 ft 330 kts 290°
2026-05-05 07:04 38.82019 117.39743 9737 ft 304 kts 316°
2026-05-05 07:04 38.85975 117.38186 9466 ft 298 kts 348°
2026-05-05 07:04 38.89800 117.36602 8933 ft 284 kts 328°
2026-05-05 07:04 38.93243 117.34237 8376 ft 279 kts 327°
2026-05-05 07:05 38.96697 117.31996 7789 ft 277 kts 328°
2026-05-05 07:05 39.00151 117.29834 7202 ft 275 kts 328°
2026-05-05 07:05 39.05279 117.26575 6330 ft 273 kts 327°
2026-05-05 07:05 39.12079 117.22226 5080 ft 272 kts 328°
2026-05-05 07:06 39.18802 117.17951 4161 ft 260 kts 329°
2026-05-05 07:06 39.23734 117.16187 3756 ft 255 kts 13°
2026-05-05 07:06 39.25743 117.19122 3396 ft 234 kts 91°
2026-05-05 07:06 39.25855 117.21157 3244 ft 226 kts 84°
2026-05-05 07:07 39.26290 117.23083 3072 ft 222 kts 74°
2026-05-05 07:07 39.26855 117.24911 2869 ft 216 kts 75°
2026-05-05 07:07 39.26937 117.26733 2668 ft 201 kts 113°
2026-05-05 07:07 39.25828 117.28463 2411 ft 169 kts 162°
2026-05-05 07:08 39.24772 117.29029 2311 ft 161 kts 153°
2026-05-05 07:08 39.23382 117.30825 2028 ft 143 kts 146°
2026-05-05 07:08 39.22449 117.31433 1819 ft 134 kts 172°
2026-05-05 07:08 39.21575 117.31773 1652 ft 131 kts 168°
2026-05-05 07:09 39.20717 117.32222 1478 ft 134 kts 162°
2026-05-05 07:09 39.19873 117.32727 1308 ft 133 kts 162°
2026-05-05 07:09 39.19049 117.33233 1117 ft 130 kts 162°
2026-05-05 07:09 39.18226 117.33736 963 ft 134 kts 161°
2026-05-05 07:10 39.17387 117.34255 792 ft 131 kts 159°
2026-05-05 07:10 39.16590 117.34759 672 ft 127 kts 158°
2026-05-05 07:10 39.15769 117.35277 412 ft 144 kts 160°
2026-05-05 07:10 39.14876 117.35814 262 ft 137 kts 156°
2026-05-05 07:11 39.14025 117.36333 38 ft 134 kts 155°
2026-05-05 07:11 39.13276 117.36792 21 ft 93 kts 154°
2026-05-05 07:11 39.12880 117.37036 19 ft 33 kts 154°
2026-05-05 07:11 39.12758 117.37110 19 ft 17 kts 154°
2026-05-05 07:12 39.12647 117.37177 18 ft 19 kts 155°
2026-05-05 07:12 39.12509 117.37247 18 ft 18 kts 168°
2026-05-05 07:12 39.12294 117.37210 19 ft 13 kts 239°
2026-05-05 07:12 39.12388 117.37105 19 ft 16 kts 334°
2026-05-05 07:13 39.12667 117.36934 18 ft 25 kts 334°
2026-05-05 07:13 39.12846 117.36742 18 ft 14 kts 251°
2026-05-05 07:13 39.12764 117.36521 18 ft 14 kts 243°
2026-05-05 07:13 39.12678 117.36277 18 ft 14 kts 265°
2026-05-05 07:14 39.12734 117.36057 20 ft 13 kts 237°
2026-05-05 07:14 39.12676 117.35993 19 ft 0 kts 218°